SWA1179 KHOU-KOKC

Flight info

Callsign SWA1179
Flight time 0h 58m
Altitude 40000
Route STYCK8 DOLEY ZEMMA TSDEL3
Aircraft B737/M-SADE2E3GIJ4RWZ/LB1D1

Departure

Time 2026-04-28 01:35
Airport William P. Hobby Airport (KHOU)

Arrival

Time 2026-04-28 02:34
Airport OKC Will Rogers World Airport (KOKC)
Time Latitude Longitude Altitude Speed Heading
2026-04-28 01:11 29.65218 -95.27783 51 ft 0 kts 339°
2026-04-28 01:29 29.65201 -95.27775 51 ft 4 kts 339°
2026-04-28 01:29 29.65176 -95.27764 48 ft 4 kts 339°
2026-04-28 01:30 29.65156 -95.27756 49 ft 4 kts
2026-04-28 01:30 29.65143 -95.27766 49 ft 4 kts 86°
2026-04-28 01:30 29.65142 -95.27790 51 ft 0 kts 89°
2026-04-28 01:32 29.65142 -95.27764 49 ft 9 kts 89°
2026-04-28 01:33 29.65144 -95.27673 51 ft 16 kts 89°
2026-04-28 01:33 29.65147 -95.27512 51 ft 21 kts 88°
2026-04-28 01:33 29.65199 -95.27357 51 ft 25 kts 45°
2026-04-28 01:33 29.65330 -95.27211 51 ft 28 kts 44°
2026-04-28 01:34 29.65471 -95.27053 51 ft 20 kts 51°
2026-04-28 01:34 29.65455 -95.26934 51 ft 11 kts 134°
2026-04-28 01:34 29.65388 -95.26904 51 ft 11 kts 202°
2026-04-28 01:34 29.65276 -95.27023 48 ft 50 kts 224°
2026-04-28 01:35 29.64844 -95.27504 48 ft 120 kts 224°
2026-04-28 01:35 29.64084 -95.28275 199 ft 161 kts 217°
2026-04-28 01:35 29.63230 -95.29121 907 ft 161 kts 217°
2026-04-28 01:35 29.62381 -95.29975 1651 ft 163 kts 219°
2026-04-28 01:36 29.61762 -95.31227 1819 ft 214 kts 256°
2026-04-28 01:36 29.61886 -95.33105 1986 ft 258 kts 285°
2026-04-28 01:36 29.62987 -95.34864 2455 ft 287 kts 321°
2026-04-28 01:36 29.64813 -95.35733 3524 ft 284 kts 354°
2026-04-28 01:37 29.66798 -95.35600 4401 ft 291 kts
2026-04-28 01:37 29.68852 -95.35480 5119 ft 299 kts
2026-04-28 01:37 29.70941 -95.35367 5974 ft 302 kts
2026-04-28 01:37 29.73039 -95.35214 6864 ft 303 kts
2026-04-28 01:38 29.75119 -95.34777 7734 ft 306 kts 11°
2026-04-28 01:38 29.77214 -95.34265 8606 ft 309 kts 11°
2026-04-28 01:38 29.79331 -95.33737 9498 ft 314 kts 12°
2026-04-28 01:38 29.81506 -95.33531 10315 ft 317 kts 350°
2026-04-28 01:39 29.83746 -95.34005 10692 ft 340 kts 345°
2026-04-28 01:39 29.86148 -95.34622 10879 ft 367 kts 345°
2026-04-28 01:39 29.88707 -95.35291 11190 ft 386 kts 345°
2026-04-28 01:39 29.91359 -95.35966 11865 ft 392 kts 345°
2026-04-28 01:40 29.94027 -95.36626 12723 ft 393 kts 345°
2026-04-28 01:40 29.96712 -95.37278 13584 ft 395 kts 345°
2026-04-28 01:40 29.99409 -95.37928 14344 ft 397 kts 345°
2026-04-28 01:40 30.02124 -95.38581 15118 ft 399 kts 344°
2026-04-28 01:41 30.04845 -95.39235 15664 ft 399 kts 344°
2026-04-28 01:41 30.07575 -95.39894 15967 ft 402 kts 343°
2026-04-28 01:41 30.10220 -95.40720 15982 ft 398 kts 335°
2026-04-28 01:41 30.12768 -95.42051 15987 ft 395 kts 329°
2026-04-28 01:42 30.15222 -95.43470 15983 ft 395 kts 329°
2026-04-28 01:42 30.17657 -95.44889 16244 ft 399 kts 329°
2026-04-28 01:42 30.20146 -95.46322 17042 ft 399 kts 329°
2026-04-28 01:42 30.22632 -95.47734 17940 ft 397 kts 329°
2026-04-28 01:43 30.25117 -95.49135 18661 ft 399 kts 329°
2026-04-28 01:43 30.27659 -95.50568 19283 ft 402 kts 329°
2026-04-28 01:43 30.30152 -95.51974 19875 ft 406 kts 329°
2026-04-28 01:43 30.32700 -95.53412 20457 ft 410 kts 329°
2026-04-28 01:44 30.35268 -95.54862 21087 ft 412 kts 329°
2026-04-28 01:44 30.37850 -95.56320 21711 ft 414 kts 329°
2026-04-28 01:44 30.40442 -95.57786 22308 ft 416 kts 328°
2026-04-28 01:44 30.43052 -95.59263 22878 ft 419 kts 328°
2026-04-28 01:45 30.45682 -95.60752 23418 ft 422 kts 328°
2026-04-28 01:45 30.48321 -95.62247 23877 ft 424 kts 328°
2026-04-28 01:45 30.50980 -95.63753 24294 ft 425 kts 328°
2026-04-28 01:45 30.53640 -95.65260 24777 ft 427 kts 328°
2026-04-28 01:46 30.56333 -95.66742 25253 ft 429 kts 329°
2026-04-28 01:46 30.59048 -95.68191 25717 ft 431 kts 329°
2026-04-28 01:46 30.61781 -95.69636 26217 ft 432 kts 329°
2026-04-28 01:46 30.64523 -95.71086 26638 ft 434 kts 329°
2026-04-28 01:47 30.67274 -95.72545 27027 ft 436 kts 329°
2026-04-28 01:47 30.70044 -95.74021 27410 ft 438 kts 328°
2026-04-28 01:47 30.72819 -95.75503 27797 ft 440 kts 328°
2026-04-28 01:47 30.75603 -95.76993 28171 ft 441 kts 328°
2026-04-28 01:48 30.78457 -95.78358 28551 ft 448 kts 334°
2026-04-28 01:48 30.81433 -95.79478 28956 ft 451 kts 335°
2026-04-28 01:48 30.84438 -95.80530 29409 ft 451 kts 336°
2026-04-28 01:48 30.87444 -95.81557 29942 ft 449 kts 335°
2026-04-28 01:49 30.90429 -95.82579 30444 ft 445 kts 335°
2026-04-28 01:49 30.93388 -95.83607 30942 ft 442 kts 335°
2026-04-28 01:49 30.96326 -95.84642 31392 ft 441 kts 335°
2026-04-28 01:49 30.99254 -95.85687 31840 ft 439 kts 334°
2026-04-28 01:50 31.02165 -95.86733 32319 ft 437 kts 334°
2026-04-28 01:50 31.05065 -95.87779 32802 ft 435 kts 334°
2026-04-28 01:50 31.07950 -95.88821 33283 ft 433 kts 334°
2026-04-28 01:50 31.10822 -95.89860 33703 ft 432 kts 334°
2026-04-28 01:51 31.13686 -95.90897 34125 ft 430 kts 334°
2026-04-28 01:51 31.16546 -95.91933 34448 ft 430 kts 334°
2026-04-28 01:51 31.19404 -95.92970 34733 ft 430 kts 334°
2026-04-28 01:51 31.22266 -95.94009 35023 ft 431 kts 334°
2026-04-28 01:52 31.25124 -95.95046 35332 ft 430 kts 334°
2026-04-28 01:52 31.27982 -95.96083 35622 ft 430 kts 334°
2026-04-28 01:52 31.30838 -95.97120 35881 ft 430 kts 334°
2026-04-28 01:52 31.33697 -95.98158 36181 ft 430 kts 334°
2026-04-28 01:53 31.36552 -95.99195 36475 ft 429 kts 334°
2026-04-28 01:53 31.39400 -96.00230 36780 ft 429 kts 333°
2026-04-28 01:53 31.42215 -96.01255 37034 ft 429 kts 333°
2026-04-28 01:53 31.45104 -96.02307 37300 ft 429 kts 333°
2026-04-28 01:54 31.47916 -96.03332 37575 ft 428 kts 333°
2026-04-28 01:54 31.50759 -96.04368 37853 ft 428 kts 333°
2026-04-28 01:54 31.53603 -96.05405 38103 ft 428 kts 333°
2026-04-28 01:54 31.56443 -96.06443 38346 ft 428 kts 333°
2026-04-28 01:55 31.59289 -96.07482 38598 ft 428 kts 333°
2026-04-28 01:55 31.62129 -96.08520 38778 ft 428 kts 333°
2026-04-28 01:55 31.64970 -96.09560 38986 ft 427 kts 333°
2026-04-28 01:55 31.67811 -96.10599 39208 ft 427 kts 333°
2026-04-28 01:56 31.70653 -96.11641 39333 ft 429 kts 333°
2026-04-28 01:56 31.73503 -96.12686 39495 ft 429 kts 333°
2026-04-28 01:56 31.76357 -96.13733 39689 ft 429 kts 333°
2026-04-28 01:56 31.79203 -96.14777 39851 ft 430 kts 333°
2026-04-28 01:57 31.84945 -96.16889 39882 ft 433 kts 333°
2026-04-28 01:57 31.90672 -96.18991 39881 ft 429 kts 333°
2026-04-28 01:58 31.96356 -96.21080 39879 ft 427 kts 333°
2026-04-28 01:58 32.02010 -96.23164 39880 ft 425 kts 333°
2026-04-28 01:59 32.07647 -96.25247 39880 ft 424 kts 333°
2026-04-28 01:59 32.13285 -96.27334 39881 ft 425 kts 333°
2026-04-28 02:00 32.18943 -96.29431 39881 ft 427 kts 333°
2026-04-28 02:00 32.24628 -96.31540 39883 ft 430 kts 333°
2026-04-28 02:01 32.30346 -96.33662 39873 ft 431 kts 333°
2026-04-28 02:01 32.36079 -96.35791 39861 ft 432 kts 333°
2026-04-28 02:02 32.41825 -96.37928 39870 ft 433 kts 333°
2026-04-28 02:02 32.47570 -96.40067 39896 ft 433 kts 333°
2026-04-28 02:03 32.53314 -96.42210 39895 ft 432 kts 333°
2026-04-28 02:03 32.59010 -96.44338 39885 ft 432 kts 333°
2026-04-28 02:04 32.64736 -96.46479 39899 ft 431 kts 333°
2026-04-28 02:04 32.70444 -96.48617 39909 ft 430 kts 332°
2026-04-28 02:05 32.76149 -96.50758 39912 ft 430 kts 332°
2026-04-28 02:05 32.81847 -96.52898 39911 ft 429 kts 332°
2026-04-28 02:06 32.87534 -96.55037 39893 ft 428 kts 332°
2026-04-28 02:06 32.93214 -96.57177 39831 ft 428 kts 332°
2026-04-28 02:07 32.98890 -96.59318 39862 ft 428 kts 332°
2026-04-28 02:07 33.04575 -96.61467 39849 ft 429 kts 332°
2026-04-28 02:08 33.10270 -96.63621 39900 ft 430 kts 332°
2026-04-28 02:08 33.15979 -96.65783 39899 ft 431 kts 332°
2026-04-28 02:09 33.20732 -96.67585 39899 ft 431 kts 332°
2026-04-28 02:09 33.26460 -96.69759 39892 ft 432 kts 332°
2026-04-28 02:10 33.32196 -96.71940 39876 ft 433 kts 332°
2026-04-28 02:10 33.37933 -96.74123 39863 ft 432 kts 332°
2026-04-28 02:11 33.43637 -96.76294 39856 ft 429 kts 332°
2026-04-28 02:11 33.49335 -96.78471 39864 ft 431 kts 332°
2026-04-28 02:12 33.55059 -96.80662 39882 ft 432 kts 332°
2026-04-28 02:12 33.60790 -96.82857 39881 ft 433 kts 332°
2026-04-28 02:13 33.66530 -96.85056 39874 ft 432 kts 332°
2026-04-28 02:13 33.72228 -96.87243 39854 ft 434 kts 332°
2026-04-28 02:14 33.75167 -96.88378 39295 ft 441 kts 332°
2026-04-28 02:14 33.78074 -96.89495 38810 ft 438 kts 331°
2026-04-28 02:14 33.80943 -96.90598 38097 ft 437 kts 331°
2026-04-28 02:14 33.83829 -96.91704 37403 ft 435 kts 331°
2026-04-28 02:15 33.89569 -96.93914 36005 ft 432 kts 331°
2026-04-28 02:15 33.92432 -96.95019 35270 ft 432 kts 331°
2026-04-28 02:15 33.95303 -96.96131 34499 ft 434 kts 331°
2026-04-28 02:16 33.98186 -96.97249 33659 ft 437 kts 332°
2026-04-28 02:16 34.01084 -96.98373 32724 ft 439 kts 332°
2026-04-28 02:16 34.03993 -96.99500 31839 ft 440 kts 332°
2026-04-28 02:16 34.06914 -97.00632 30914 ft 442 kts 333°
2026-04-28 02:17 34.09852 -97.01771 29960 ft 445 kts 333°
2026-04-28 02:17 34.12792 -97.02910 29154 ft 441 kts 333°
2026-04-28 02:17 34.15701 -97.04033 28371 ft 437 kts 333°
2026-04-28 02:17 34.18577 -97.05144 27664 ft 431 kts 333°
2026-04-28 02:18 34.21425 -97.06248 26959 ft 428 kts 333°
2026-04-28 02:18 34.24256 -97.07349 26273 ft 427 kts 334°
2026-04-28 02:18 34.27078 -97.08450 25592 ft 426 kts 334°
2026-04-28 02:18 34.29894 -97.09549 24899 ft 426 kts 334°
2026-04-28 02:19 34.32712 -97.10650 24183 ft 425 kts 334°
2026-04-28 02:19 34.35516 -97.11744 23472 ft 422 kts 334°
2026-04-28 02:19 34.38303 -97.12831 22644 ft 420 kts 334°
2026-04-28 02:19 34.41068 -97.13909 21912 ft 415 kts 335°
2026-04-28 02:20 34.43774 -97.14966 21202 ft 411 kts 335°
2026-04-28 02:20 34.46478 -97.16022 20514 ft 407 kts 335°
2026-04-28 02:20 34.49158 -97.17071 19840 ft 403 kts 335°
2026-04-28 02:20 34.51822 -97.18115 19148 ft 401 kts 335°
2026-04-28 02:21 34.54463 -97.19151 18475 ft 398 kts 335°
2026-04-28 02:21 34.57093 -97.20184 17721 ft 397 kts 335°
2026-04-28 02:21 34.59674 -97.21198 17012 ft 393 kts 335°
2026-04-28 02:21 34.62292 -97.22225 16361 ft 388 kts 335°
2026-04-28 02:22 34.64846 -97.23228 15700 ft 384 kts 335°
2026-04-28 02:22 34.67373 -97.24221 15035 ft 380 kts 335°
2026-04-28 02:22 34.69881 -97.25209 14356 ft 378 kts 335°
2026-04-28 02:22 34.72373 -97.26192 13682 ft 376 kts 335°
2026-04-28 02:23 34.74853 -97.27171 12932 ft 373 kts 335°
2026-04-28 02:23 34.77305 -97.28138 12252 ft 369 kts 336°
2026-04-28 02:23 34.79703 -97.29085 11606 ft 366 kts 336°
2026-04-28 02:23 34.82092 -97.30026 11299 ft 353 kts 336°
2026-04-28 02:24 34.84383 -97.30928 11077 ft 339 kts 336°
2026-04-28 02:24 34.86577 -97.31792 10912 ft 325 kts 336°
2026-04-28 02:24 34.88686 -97.32624 10752 ft 312 kts 336°
2026-04-28 02:24 34.90657 -97.33617 10298 ft 303 kts 324°
2026-04-28 02:25 34.92400 -97.34914 9999 ft 287 kts 321°
2026-04-28 02:25 34.94051 -97.36233 9582 ft 279 kts 320°
2026-04-28 02:25 34.95652 -97.37513 9201 ft 272 kts 321°
2026-04-28 02:25 34.97249 -97.38775 8851 ft 276 kts 321°
2026-04-28 02:26 34.98874 -97.40044 8488 ft 277 kts 322°
2026-04-28 02:26 35.00499 -97.41298 8126 ft 276 kts 322°
2026-04-28 02:26 35.02124 -97.42544 7774 ft 276 kts 322°
2026-04-28 02:26 35.03747 -97.43785 7414 ft 275 kts 322°
2026-04-28 02:27 35.05369 -97.45024 7059 ft 275 kts 322°
2026-04-28 02:27 35.06986 -97.46259 6707 ft 275 kts 323°
2026-04-28 02:27 35.08582 -97.47544 6310 ft 274 kts 320°
2026-04-28 02:27 35.10132 -97.48900 5941 ft 274 kts 319°
2026-04-28 02:28 35.11688 -97.50235 5577 ft 273 kts 323°
2026-04-28 02:28 35.13273 -97.51512 5228 ft 272 kts 324°
2026-04-28 02:28 35.14854 -97.52774 4880 ft 271 kts 324°
2026-04-28 02:28 35.16430 -97.54034 4567 ft 270 kts 325°
2026-04-28 02:29 35.17980 -97.55280 4399 ft 262 kts 326°
2026-04-28 02:29 35.19473 -97.56484 4254 ft 252 kts 326°
2026-04-28 02:29 35.20875 -97.57614 4145 ft 237 kts 327°
2026-04-28 02:29 35.22247 -97.58649 4029 ft 221 kts 339°
2026-04-28 02:30 35.23731 -97.58821 3866 ft 211 kts
2026-04-28 02:30 35.25161 -97.58836 3636 ft 206 kts 356°
2026-04-28 02:30 35.26589 -97.58908 3381 ft 198 kts
2026-04-28 02:30 35.27920 -97.58892 3137 ft 184 kts
2026-04-28 02:31 35.29131 -97.58886 2913 ft 170 kts
2026-04-28 02:31 35.30263 -97.58887 2724 ft 155 kts
2026-04-28 02:31 35.31263 -97.58888 2540 ft 135 kts
2026-04-28 02:31 35.32159 -97.58889 2361 ft 123 kts
2026-04-28 02:32 35.33000 -97.58898 2166 ft 120 kts
2026-04-28 02:32 35.33824 -97.58909 1994 ft 116 kts
2026-04-28 02:32 35.34626 -97.58888 1871 ft 122 kts
2026-04-28 02:32 35.35498 -97.58892 1745 ft 127 kts
2026-04-28 02:33 35.36412 -97.58895 1592 ft 135 kts
2026-04-28 02:33 35.37343 -97.58896 1418 ft 132 kts
2026-04-28 02:33 35.38229 -97.58895 1289 ft 115 kts
2026-04-28 02:33 35.38875 -97.58894 1293 ft 71 kts 360°
2026-04-28 02:34 35.39213 -97.58895 1293 ft 35 kts
2026-04-28 02:34 35.39414 -97.58898 1290 ft 30 kts 359°
2026-04-28 02:34 35.39618 -97.58898 1290 ft 27 kts 357°
2026-04-28 02:34 35.39719 -97.58989 1292 ft 15 kts 276°
2026-04-28 02:35 35.39719 -97.59093 1294 ft 2 kts 268°
2026-04-28 02:35 35.39708 -97.59127 1295 ft 9 kts 232°
2026-04-28 02:35 35.39619 -97.59147 1294 ft 16 kts 181°
2026-04-28 02:36 35.39503 -97.59146 1294 ft 15 kts 179°
2026-04-28 02:36 35.39483 -97.59183 1295 ft 0 kts 290°
2026-04-28 02:36 35.39482 -97.59189 1295 ft 4 kts 263°
2026-04-28 02:36 35.39409 -97.59221 1295 ft 15 kts 184°
2026-04-28 02:37 35.39320 -97.59221 1293 ft 10 kts 179°
2026-04-28 02:37 35.39255 -97.59221 1293 ft 9 kts 183°
2026-04-28 02:37 35.39216 -97.59254 1293 ft 6 kts 246°
2026-04-28 02:37 35.39214 -97.59295 1294 ft 3 kts 273°
2026-04-28 02:38 35.39216 -97.59346 1294 ft 11 kts 272°
2026-04-28 02:38 35.39217 -97.59437 1295 ft 10 kts 270°
2026-04-28 02:38 35.39228 -97.59514 1294 ft 9 kts 313°
2026-04-28 02:38 35.39274 -97.59532 1295 ft 5 kts 356°
2026-04-28 02:39 35.39355 -97.59545 1297 ft 14 kts 333°
2026-04-28 02:39 35.39422 -97.59611 1296 ft 9 kts 352°
2026-04-28 02:39 35.39453 -97.59616 1296 ft 1 kts 353°
2026-04-28 02:39 35.39458 -97.59616 1296 ft 0 kts 353°